DL6MAA-11 Weather Reports


time (UTC)temp
C
wind
direction
speed
KPH
gust
KPH
rain 1hr
cm
rain 24hr
cm
rain mn
cm
humidity
%
barometer
mb
20260507110656 12 360 8.0 0.0 0.00 0.00 0.00 69 1011.5
20260507110156 12 296 8.0 0.0 0.00 0.00 0.00 70 1011.5
20260507105655 12 322 4.8 0.0 0.00 0.00 0.00 71 1011.6
20260507105159 12 281 6.4 0.0 0.00 0.00 0.00 71 1011.6
20260507104702 12 360 9.7 0.0 0.00 0.00 0.00 69 1011.6
20260507104145 12 271 8.0 0.0 0.00 0.00 0.00 68 1011.6
20260507103653 12 302 6.4 0.0 0.00 0.00 0.00 67 1011.6
20260507103152 13 304 9.7 0.0 0.00 0.00 0.00 69 1011.6
20260507102652 12 275 11.3 0.0 0.00 0.00 0.00 70 1011.6
20260507102152 11 360 11.3 0.0 0.00 0.00 0.00 70 1011.6
20260507101658 12 294 12.9 0.0 0.00 0.00 0.00 69 1011.6
20260507101143 12 360 9.7 0.0 0.00 0.00 0.00 67 1011.4
20260507100652 12 318 8.0 0.0 0.00 0.00 0.00 69 1011.4
20260507100200 12 227 6.4 0.0 0.00 0.00 0.00 70 1011.4
20260507095655 12 360 9.7 0.0 0.00 0.00 0.00 72 1011.6
20260507095157 11 360 9.7 0.0 0.00 0.00 0.00 76 1011.6
20260507094657 11 287 9.7 0.0 0.00 0.00 0.00 73 1011.6
20260507094202 11 271 11.3 0.0 0.00 0.00 0.00 73 1011.8
20260507093647 11 288 6.4 0.0 0.00 0.00 0.00 76 1011.8
20260507093149 10 203 6.4 0.0 0.00 0.00 0.00 75 1011.8
20260507092657 10 275 6.4 0.0 0.00 0.00 0.00 75 1011.7
20260507092156 10 360 8.0 0.0 0.00 0.00 0.00 76 1011.7
20260507091659 10 273 6.4 0.0 0.00 0.00 0.00 76 1011.7
20260507091149 10 360 6.4 0.0 0.00 0.00 0.00 77 1011.7
20260507090701 10 242 6.4 0.0 0.00 0.00 0.00 77 1011.7
20260507090203 10 277 4.8 0.0 0.00 0.00 0.00 76 1011.7
20260507085644 10 291 6.4 0.0 0.00 0.00 0.00 77 1011.5
20260507085158 10 192 6.4 0.0 0.00 0.00 0.00 77 1011.5
20260507084646 10 255 3.2 0.0 0.00 0.00 0.00 76 1011.5
20260507084147 10 184 3.2 0.0 0.00 0.00 0.00 76 1011.4
20260507083654 10 167 6.4 0.0 0.00 0.00 0.00 76 1011.4
20260507083146 10 279 6.4 0.0 0.00 0.00 0.00 73 1011.4
20260507082657 10 275 6.4 0.0 0.00 0.00 0.00 73 1011.2
20260507082148 10 312 6.4 0.0 0.00 0.00 0.00 76 1011.2
20260507081655 10 232 6.4 0.0 0.00 0.00 0.00 73 1011.2
20260507081144 10 281 8.0 0.0 0.00 0.00 0.00 72 1011.3
20260507080652 10 213 9.7 0.0 0.00 0.00 0.00 73 1011.3
20260507080200 10 276 11.3 0.0 0.00 0.00 0.00 72 1011.3
20260507075650 10 360 11.3 0.0 0.00 0.00 0.00 72 1011.1
20260507075158 10 286 12.9 0.0 0.00 0.00 0.00 71 1011.1
20260507074646 10 360 9.7 0.0 0.00 0.00 0.00 71 1011.1
20260507074202 10 259 6.4 0.0 0.00 0.00 0.00 71 1010.8
20260507073646 10 245 8.0 0.0 0.00 0.00 0.00 72 1010.8
20260507073152 10 360 9.7 0.0 0.00 0.00 0.00 72 1010.8
20260507072645 10 219 8.0 0.0 0.00 0.00 0.00 72 1010.7
20260507072156 10 152 6.4 0.0 0.00 0.00 0.00 73 1010.7
20260507071650 10 360 4.8 0.0 0.00 0.00 0.00 73 1010.7
20260507071142 10 288 4.8 0.0 0.00 0.00 0.00 74 1010.6
20260507070645 10 199 3.2 0.0 0.00 0.00 0.00 73 1010.6
20260507070153 10 245 4.8 0.0 0.00 0.00 0.00 74 1010.6
20260507065658 10 281 4.8 0.0 0.00 0.00 0.00 74 1010.5
20260507065203 10 192 6.4 0.0 0.00 0.00 0.00 74 1010.5
20260507064651 10 252 6.4 0.0 0.00 0.00 0.00 75 1010.5
20260507064153 10 295 4.8 0.0 0.00 0.00 0.00 76 1010.5
20260507063658 10 360 6.4 0.0 0.00 0.00 0.00 75 1010.5
20260507063146 10 360 6.4 0.0 0.00 0.00 0.00 76 1010.5
20260507062657 9 173 4.8 0.0 0.00 0.00 0.00 77 1010.2
20260507062145 9 360 4.8 0.0 0.00 0.00 0.00 77 1010.2
20260507061649 9 360 4.8 0.0 0.00 0.00 0.00 76 1010.2
20260507061200 9 270 3.2 0.0 0.00 0.00 0.00 76 1010.1
20260507060700 9 199 4.8 0.0 0.00 0.00 0.00 76 1010.1
20260507060201 9 236 3.2 0.0 0.00 0.00 0.00 75 1010.1
20260507055645 9 288 1.6 0.0 0.00 0.00 0.00 76 1010.0
20260507055147 9 165 1.6 0.0 0.00 0.00 0.00 76 1010.0
20260507054658 9 291 3.2 0.0 0.00 0.00 0.00 75 1010.0
20260507054158 9 286 3.2 0.0 0.00 0.00 0.00 76 1009.8
20260507053700 9 196 3.2 0.0 0.00 0.00 0.00 76 1009.8
20260507053144 9 280 3.2 0.0 0.00 0.00 0.00 76 1009.8
20260507052648 9 153 3.2 0.0 0.00 0.00 0.00 75 1009.5
20260507052150 9 360 1.6 0.0 0.00 0.00 0.00 75 1009.5
20260507051642 9 249 1.6 0.0 0.00 0.00 0.00 75 1009.5
20260507051152 9 360 1.6 0.0 0.00 0.00 0.00 76 1009.5
20260507050700 8 184 3.2 0.0 0.00 0.00 0.00 76 1009.5
20260507050141 8 277 3.2 0.0 0.00 0.00 0.00 77 1009.5
20260507045654 8 176 3.2 0.0 0.00 0.00 0.00 78 1009.4
20260507045159 8 254 1.6 0.0 0.00 0.00 0.00 79 1009.4
20260507044655 8 153 1.6 0.0 0.00 0.00 0.00 79 1009.4
20260507044201 8 360 1.6 0.0 0.00 0.00 0.00 79 1009.2
20260507043654 8 192 1.6 0.0 0.00 0.00 0.00 79 1009.2
20260507043146 8 194 1.6 0.0 0.00 0.00 0.00 79 1009.2
20260507042657 8 360 1.6 0.0 0.00 0.00 0.00 79 1008.9
20260507042151 8 186 0.0 0.0 0.00 0.00 0.00 79 1008.9
20260507041653 8 360 0.0 0.0 0.00 0.00 0.00 79 1008.9
20260507041201 8 193 0.0 0.0 0.00 0.00 0.00 79 1008.9
20260507040648 8 246 0.0 0.0 0.00 0.00 0.00 79 1008.9
20260507040152 8 242 0.0 0.0 0.00 0.00 0.00 79 1008.9
20260507035659 8 200 0.0 0.0 0.00 0.00 0.00 79 1008.8
20260507035201 8 267 0.0 0.0 0.00 0.00 0.00 79 1008.8
20260507034651 8 194 0.0 0.0 0.00 0.00 0.00 79 1008.8
20260507034201 8 194 0.0 0.0 0.00 0.00 0.00 79 1008.7
20260507033650 8 253 0.0 0.0 0.00 0.00 0.00 79 1008.7
20260507033201 8 253 0.0 0.0 0.00 0.00 0.00 79 1008.7
20260507032646 8 250 0.0 0.0 0.00 0.00 0.00 79 1008.5
20260507032151 8 182 0.0 0.0 0.00 0.00 0.00 79 1008.5
20260507031653 8 205 0.0 0.0 0.00 0.00 0.00 80 1008.5
20260507031158 8 246 1.6 0.0 0.00 0.00 0.00 80 1007.8
20260507030701 8 209 1.6 0.0 0.00 0.00 0.00 80 1007.8
20260507030154 7 203 0.0 0.0 0.00 0.00 0.00 80 1007.8
20260507025701 7 259 1.6 0.0 0.00 0.00 0.00 80 1007.9
20260507025200 7 225 1.6 0.0 0.00 0.00 0.00 81 1007.9
20260507024702 7 360 1.6 0.0 0.00 0.00 0.00 81 1007.9
20260507024149 7 223 0.0 0.0 0.00 0.00 0.00 81 1007.7
20260507023652 7 129 1.6 0.0 0.00 0.00 0.00 81 1007.7
20260507023147 7 360 0.0 0.0 0.00 0.00 0.00 81 1007.7
20260507022655 7 166 0.0 0.0 0.00 0.00 0.00 81 1007.9
20260507022200 7 263 0.0 0.0 0.00 0.00 0.00 80 1007.9
20260507021647 7 236 0.0 0.0 0.00 0.00 0.00 80 1007.9
20260507021146 7 217 0.0 0.0 0.00 0.00 0.00 80 1008.2
20260507020653 7 218 0.0 0.0 0.00 0.00 0.00 79 1008.2
20260507020146 7 218 0.0 0.0 0.00 0.00 0.00 79 1008.2
20260507015659 7 218 0.0 0.0 0.00 0.00 0.00 79 1008.1
20260507015153 7 219 0.0 0.0 0.00 0.00 0.00 79 1008.1
20260507014644 7 219 0.0 0.0 0.00 0.00 0.00 79 1008.1
20260507014152 7 223 0.0 0.0 0.00 0.00 0.00 78 1008.1
20260507013653 7 221 0.0 0.0 0.00 0.00 0.00 78 1008.1
20260507013154 7 219 0.0 0.0 0.00 0.00 0.00 77 1008.1
20260507012653 7 219 0.0 0.0 0.00 0.00 0.00 77 1007.9
20260507012153 7 218 0.0 0.0 0.00 0.00 0.00 77 1007.9
20260507011700 7 219 0.0 0.0 0.00 0.00 0.00 77 1007.9
20260507011147 7 218 0.0 0.0 0.00 0.00 0.00 78 1008.0
20260507010653 7 360 0.0 0.0 0.00 0.00 0.00 78 1008.0
20260507010201 7 217 0.0 0.0 0.00 0.00 0.00 78 1008.0
20260507005650 7 217 0.0 0.0 0.00 0.00 0.00 77 1007.9
20260507005146 7 211 0.0 0.0 0.00 0.00 0.00 77 1007.9
20260507004647 8 215 0.0 0.0 0.00 0.00 0.00 77 1007.9
20260507004152 8 192 0.0 0.0 0.00 0.00 0.00 76 1007.9
20260507003657 8 191 0.0 0.0 0.00 0.00 0.00 76 1007.9
20260507003159 8 193 0.0 0.0 0.00 0.00 0.00 76 1007.9
20260507002645 8 193 0.0 0.0 0.00 0.00 0.00 76 1007.8
20260507002153 8 360 0.0 0.0 0.00 0.00 0.00 76 1007.8
20260507001648 8 195 0.0 0.0 0.00 0.00 0.00 76 1007.8
20260507001156 8 157 0.0 0.0 0.00 0.00 0.00 76 1007.7
20260507000702 8 157 0.0 0.0 0.00 0.00 0.00 76 1007.7
20260507000204 8 157 0.0 0.0 0.00 0.00 0.00 76 1007.7
20260506235655 8 157 0.0 0.0 0.00 0.00 0.00 76 1007.7
20260506235200 8 163 0.0 0.0 0.00 0.00 0.00 76 1007.7
20260506234645 8 190 0.0 0.0 0.00 0.00 0.00 77 1007.7
20260506234159 8 222 0.0 0.0 0.00 0.00 0.00 77 1007.7
20260506233705 8 226 1.6 0.0 0.00 0.00 0.00 77 1007.7
20260506233154 8 215 1.6 0.0 0.00 0.00 0.00 76 1007.7
20260506232649 8 158 0.0 0.0 0.00 0.00 0.00 77 1007.6
20260506232154 8 207 0.0 0.0 0.00 0.00 0.00 77 1007.6
20260506231701 8 184 1.6 0.0 0.00 0.00 0.00 77 1007.6
20260506230704 8 360 1.6 0.0 0.00 0.00 0.00 77 1007.3
20260506230150 8 269 0.0 0.0 0.00 0.00 0.00 77 1007.3
20260506225654 8 218 0.0 0.0 0.00 0.00 0.00 76 1007.3
20260506225203 8 217 0.0 0.0 0.00 0.00 0.00 76 1007.3
20260506224647 8 226 0.0 0.0 0.00 0.00 0.00 76 1007.3
20260506224154 8 230 0.0 0.0 0.00 0.00 0.00 76 1008.1
20260506223700 8 318 1.6 0.0 0.00 0.00 0.00 76 1008.1
20260506223201 8 174 1.6 0.0 0.00 0.00 0.00 76 1008.1
20260506222700 9 157 0.0 0.0 0.00 0.00 0.00 76 1008.1
20260506222148 9 360 1.6 0.0 0.00 0.00 0.00 76 1008.1
20260506221657 9 273 1.6 0.0 0.00 0.00 0.00 76 1008.1
20260506221149 9 155 1.6 0.0 0.00 0.00 0.00 76 1007.2
20260506220655 9 173 1.6 0.0 0.00 0.00 0.00 76 1007.2
20260506220159 9 246 1.6 0.0 0.00 0.00 0.00 76 1007.2
20260506215653 9 225 1.6 0.0 0.00 0.00 0.05 76 1007.1
20260506215201 9 274 1.6 0.0 0.00 0.00 0.05 76 1007.1
20260506214703 9 225 1.6 0.0 0.00 0.00 0.05 76 1007.1
20260506214148 9 360 0.0 0.0 0.00 0.00 0.05 76 1007.1
20260506213656 9 191 0.0 0.0 0.00 0.00 0.05 76 1007.1
20260506213204 9 209 0.0 0.0 0.00 0.00 0.05 76 1007.1
20260506212647 9 360 1.6 0.0 0.00 0.00 0.05 76 1007.1
20260506212150 9 198 1.6 0.0 0.00 0.00 0.05 76 1007.1
20260506211650 9 269 1.6 0.0 0.00 0.00 0.05 76 1007.1
20260506211156 9 259 1.6 0.0 0.00 0.00 0.05 76 1007.2
20260506210657 9 189 1.6 0.0 0.00 0.00 0.05 76 1007.2
20260506210159 9 271 1.6 0.0 0.00 0.00 0.05 76 1007.2
20260506205647 9 360 1.6 0.0 0.00 0.00 0.05 76 1007.0
20260506205152 9 161 1.6 0.0 0.00 0.00 0.05 75 1007.0
20260506204655 9 226 3.2 0.0 0.00 0.00 0.05 75 1007.0
20260506204155 9 244 3.2 0.0 0.00 0.00 0.05 75 1006.7
20260506203644 9 360 4.8 0.0 0.00 0.00 0.05 75 1006.7
20260506203147 9 76 4.8 0.0 0.00 0.00 0.05 75 1006.7
20260506202655 9 195 4.8 0.0 0.00 0.00 0.05 75 1006.7
20260506202150 9 268 6.4 0.0 0.00 0.00 0.05 75 1006.7
20260506201645 9 248 4.8 0.0 0.00 0.00 0.05 75 1006.7
20260506201157 9 281 4.8 0.0 0.00 0.00 0.05 74 1006.7
20260506200649 9 167 3.2 0.0 0.00 0.00 0.05 74 1006.7
20260506200149 9 315 3.2 0.0 0.00 0.00 0.05 74 1006.7
20260506195654 9 205 1.6 0.0 0.00 0.00 0.05 74 1006.8
20260506195205 9 360 1.6 0.0 0.00 0.00 0.05 74 1006.8
20260506194705 9 270 1.6 0.0 0.00 0.00 0.05 74 1006.8
20260506194145 10 257 1.6 0.0 0.00 0.00 0.05 74 1006.6
20260506193653 10 360 1.6 0.0 0.00 0.00 0.05 74 1006.6
20260506193158 10 167 3.2 0.0 0.00 0.00 0.05 73 1006.6
20260506192653 10 360 1.6 0.0 0.00 0.00 0.05 73 1006.7
20260506192201 10 199 0.0 0.0 0.00 0.00 0.05 76 1006.7
20260506191653 10 360 1.6 0.0 0.00 0.00 0.05 73 1006.7
20260506191158 10 161 3.2 0.0 0.00 0.00 0.05 73 1006.5
20260506190704 10 211 1.6 0.0 0.00 0.00 0.05 72 1006.5
20260506190153 10 288 1.6 0.0 0.00 0.00 0.05 72 1006.5
20260506185655 10 198 1.6 0.0 0.00 0.00 0.05 72 1006.3
20260506185200 10 196 3.2 0.0 0.00 0.00 0.05 71 1006.3
20260506184700 10 360 3.2 0.0 0.00 0.00 0.05 71 1006.3
20260506184203 10 360 3.2 0.0 0.00 0.00 0.05 71 1006.3
20260506183702 10 285 3.2 0.0 0.00 0.00 0.05 71 1006.3
20260506183149 10 360 3.2 0.0 0.00 0.00 0.05 71 1006.3
20260506182657 10 155 1.6 0.0 0.00 0.00 0.05 70 1006.3
20260506182203 10 10 1.6 0.0 0.00 0.00 0.05 70 1006.3
20260506181651 11 235 1.6 0.0 0.00 0.00 0.05 70 1006.3
20260506181151 11 360 1.6 0.0 0.00 0.00 0.05 70 1006.0
20260506180706 11 171 1.6 0.0 0.00 0.00 0.05 69 1006.0
20260506180155 11 255 1.6 0.0 0.00 0.00 0.05 69 1006.0
20260506175701 11 329 3.2 0.0 0.00 0.00 0.05 70 1005.9
20260506175151 11 159 3.2 0.0 0.00 0.00 0.05 70 1005.9
20260506174657 11 192 1.6 0.0 0.00 0.00 0.05 70 1005.9
20260506174206 11 360 1.6 0.0 0.00 0.00 0.05 70 1005.4
20260506173655 11 178 3.2 0.0 0.00 0.00 0.05 71 1005.4
20260506173144 11 247 6.4 0.0 0.00 0.00 0.05 71 1005.4
20260506172651 11 248 6.4 0.0 0.00 0.00 0.05 71 1004.9
20260506172153 11 257 6.4 0.0 0.00 0.00 0.05 70 1004.9
20260506171658 11 310 6.4 0.0 0.00 0.00 0.05 70 1004.9
20260506171203 11 360 6.4 0.0 0.00 0.00 0.05 69 1005.3
20260506170649 11 299 9.7 0.0 0.00 0.00 0.05 69 1005.3
20260506170157 11 287 9.7 0.0 0.00 0.00 0.05 68 1005.3
20260506165658 11 191 4.8 0.0 0.00 0.00 0.05 69 1005.3
20260506165156 11 286 6.4 0.0 0.00 0.00 0.05 69 1005.3
20260506164655 11 161 11.3 0.0 0.00 0.00 0.05 68 1005.3
20260506164157 11 360 14.5 0.0 0.00 0.00 0.05 68 1005.1
20260506163657 11 272 12.9 0.0 0.00 0.00 0.05 68 1005.1
20260506163205 12 248 11.3 0.0 0.00 0.00 0.05 67 1005.1
20260506162654 12 254 12.9 0.0 0.00 0.00 0.05 68 1005.0
20260506162157 12 271 11.3 0.0 0.00 0.00 0.05 69 1005.0
20260506161700 12 254 6.4 0.0 0.00 0.00 0.05 73 1005.0
20260506161152 12 273 4.8 0.0 0.00 0.00 0.05 72 1004.8
20260506160658 12 254 8.0 0.0 0.00 0.00 0.05 71 1004.8
20260506160158 12 244 9.7 0.0 0.00 0.00 0.05 73 1004.8
20260506155146 12 272 6.4 0.0 0.00 0.00 0.05 72 1004.4
20260506154652 12 271 6.4 0.0 0.00 0.00 0.05 70 1004.4
20260506154148 13 172 6.4 0.0 0.00 0.00 0.05 67 1003.4
20260506153659 15 360 9.7 0.0 0.00 0.00 0.05 62 1003.4
20260506153202 16 184 6.4 0.0 0.00 0.00 0.05 58 1003.4
20260506152702 16 173 3.2 0.0 0.00 0.00 0.03 62 1003.0
20260506152146 17 145 3.2 0.0 0.00 0.00 0.03 59 1003.0
20260506151652 18 138 3.2 0.0 0.00 0.00 0.03 60 1003.0
20260506151152 18 192 1.6 0.0 0.00 0.00 0.03 59 1003.1
20260506150650 18 195 1.6 0.0 0.00 0.00 0.03 61 1003.1
20260506150154 17 160 3.2 0.0 0.00 0.00 0.03 61 1003.1
20260506145703 17 148 3.2 0.0 0.00 0.00 0.03 61 1002.3
20260506145148 17 148 1.6 0.0 0.00 0.00 0.03 65 1002.3
20260506144655 16 157 1.6 0.0 0.00 0.00 0.03 63 1002.3
20260506144201 17 360 1.6 0.0 0.00 0.00 0.03 63 1002.4
20260506143705 16 144 0.0 0.0 0.00 0.00 0.03 65 1002.4
20260506143200 16 244 0.0 0.0 0.00 0.00 0.03 67 1002.4
20260506142653 15 169 0.0 0.0 0.00 0.00 0.03 65 1002.9
20260506142155 15 188 0.0 0.0 0.00 0.00 0.03 64 1002.9
20260506141656 15 180 0.0 0.0 0.00 0.00 0.03 65 1002.9
20260506141159 15 190 0.0 0.0 0.00 0.00 0.03 66 1002.7
20260506140700 15 188 1.6 0.0 0.00 0.00 0.03 65 1002.7
20260506140145 15 167 3.2 0.0 0.00 0.00 0.03 65 1002.7
20260506135649 15 163 3.2 0.0 0.00 0.00 0.03 68 1003.4
20260506135155 15 153 3.2 0.0 0.00 0.00 0.03 72 1003.4
20260506134656 13 160 1.6 0.0 0.00 0.00 0.03 73 1003.4
20260506133148 15 136 1.6 0.0 0.00 0.00 0.03 67 1003.3
20260506132651 15 171 0.0 0.0 0.00 0.00 0.03 66 1002.7
20260506132154 15 189 0.0 0.0 0.00 0.00 0.03 67 1002.7
20260506131654 15 189 1.6 0.0 0.00 0.00 0.03 67 1002.7
20260506131200 15 123 1.6 0.0 0.00 0.00 0.00 64 1002.6
20260506130702 15 50 0.0 0.0 0.00 0.00 0.00 61 1002.6
20260506130148 15 50 0.0 0.0 0.00 0.00 0.00 61 1002.6
20260506125647 15 50 0.0 0.0 0.00 0.00 0.00 62 1002.3
20260506125154 15 17 0.0 0.0 0.00 0.00 0.00 62 1002.3
20260506124656 16 17 0.0 0.0 0.00 0.00 0.00 61 1002.3
20260506124156 16 360 0.0 0.0 0.00 0.00 0.00 60 1002.3
20260506123701 16 70 0.0 0.0 0.00 0.00 0.00 60 1002.3
20260506123159 16 86 0.0 0.0 0.00 0.00 0.00 59 1002.3
20260506122650 16 52 1.6 0.0 0.00 0.00 0.00 59 1002.3
20260506122158 16 59 0.0 0.0 0.00 0.00 0.00 59 1002.3
20260506121704 16 74 0.0 0.0 0.00 0.00 0.00 59 1002.3
20260506121155 16 103 0.0 0.0 0.00 0.00 0.00 58 1002.2
20260506120702 16 110 0.0 0.0 0.00 0.00 0.00 57 1002.2
20260506120144 16 360 0.0 0.0 0.00 0.00 0.00 57 1002.2
20260506115652 16 360 1.6 0.0 0.00 0.00 0.00 58 1002.2
20260506115154 17 60 3.2 0.0 0.00 0.00 0.00 57 1002.2
20260506114653 16 102 3.2 0.0 0.00 0.00 0.00 58 1002.2
20260506114201 16 42 1.6 0.0 0.00 0.00 0.00 57 1002.4
20260506113704 16 79 0.0 0.0 0.00 0.00 0.00 58 1002.4
20260506113206 16 80 3.2 0.0 0.00 0.00 0.00 58 1002.4
20260506112651 16 59 1.6 0.0 0.00 0.00 0.00 57 1003.4
20260506112159 16 63 1.6 0.0 0.00 0.00 0.00 58 1003.4
20260506111648 17 65 3.2 0.0 0.00 0.00 0.00 55 1003.4
20260506111203 17 58 1.6 0.0 0.00 0.00 0.00 55 1003.1